| time (UTC) | temp F | wind direction | speed MPH | gust MPH | rain 1hr in | rain 24hr in | rain mn in | humidity % | barometer mb |
| 20260906111028 | 71 | 224 | 0.0 | 2.0 | 0.00 | 0.00 | 0.00 | 88 | 1013.8 |
| 20260906110022 | 72 | 203 | 1.0 | 2.0 | 0.00 | 0.00 | 0.00 | 87 | 1013.8 |
| 20260906105016 | 71 | 240 | 1.0 | 2.0 | 0.00 | 0.00 | 0.00 | 86 | 1013.9 |
| 20260906104030 | 71 | 241 | 1.0 | 2.0 | 0.00 | 0.00 | 0.00 | 87 | 1013.6 |
| 20260906103024 | 71 | 277 | 0.0 | 2.0 | 0.00 | 0.00 | 0.00 | 88 | 1013.7 |
| 20260906102018 | 70 | 337 | 2.0 | 4.0 | 0.00 | 0.00 | 0.00 | 89 | 1013.9 |
| 20260906101032 | 70 | 270 | 1.0 | 4.0 | 0.00 | 0.00 | 0.00 | 90 | 1013.8 |
| 20260906100026 | 70 | 318 | 1.0 | 3.0 | 0.00 | 0.00 | 0.00 | 90 | 1013.7 |
| 20260906095040 | 70 | 330 | 1.0 | 3.0 | 0.00 | 0.00 | 0.00 | 90 | 1013.8 |
| 20260906094053 | 70 | 329 | 1.0 | 3.0 | 0.00 | 0.00 | 0.00 | 90 | 1013.7 |
| 20260906093048 | 70 | 249 | 1.0 | 3.0 | 0.00 | 0.00 | 0.00 | 90 | 1013.8 |
| 20260906092041 | 70 | 350 | 1.0 | 3.0 | 0.00 | 0.00 | 0.00 | 90 | 1013.8 |
| 20260906091055 | 70 | 330 | 1.0 | 4.0 | 0.00 | 0.00 | 0.00 | 91 | 1013.9 |
| 20260906090049 | 70 | 305 | 1.0 | 3.0 | 0.00 | 0.00 | 0.00 | 90 | 1013.9 |
| 20260906085023 | 71 | 283 | 1.0 | 3.0 | 0.00 | 0.00 | 0.00 | 89 | 1013.8 |
| 20260906084016 | 71 | 8 | 1.0 | 3.0 | 0.00 | 0.00 | 0.00 | 89 | 1013.7 |
| 20260906083029 | 71 | 151 | 1.0 | 2.0 | 0.00 | 0.00 | 0.00 | 88 | 1013.6 |
| 20260906082022 | 70 | 2 | 2.0 | 4.0 | 0.00 | 0.00 | 0.00 | 90 | 1013.6 |
| 20260906081036 | 70 | 267 | 1.0 | 3.0 | 0.00 | 0.00 | 0.00 | 90 | 1013.5 |
| 20260906080030 | 70 | 186 | 2.0 | 5.0 | 0.00 | 0.00 | 0.00 | 90 | 1013.5 |
| 20260906075024 | 70 | 172 | 3.0 | 5.0 | 0.00 | 0.00 | 0.00 | 90 | 1013.5 |
| 20260906074018 | 71 | 335 | 2.0 | 5.0 | 0.00 | 0.00 | 0.00 | 88 | 1013.2 |
| 20260906073031 | 71 | 338 | 2.0 | 5.0 | 0.00 | 0.00 | 0.00 | 88 | 1013.2 |
| 20260906072024 | 71 | 253 | 2.0 | 5.0 | 0.00 | 0.00 | 0.00 | 86 | 1013.5 |
| 20260906071019 | 72 | 204 | 1.0 | 6.0 | 0.00 | 0.00 | 0.00 | 84 | 1013.6 |
| 20260906070034 | 73 | 297 | 1.0 | 4.0 | 0.00 | 0.00 | 0.00 | 80 | 1013.5 |
| 20260906065049 | 73 | 342 | 2.0 | 5.0 | 0.00 | 0.00 | 0.00 | 80 | 1013.6 |
| 20260906064043 | 73 | 290 | 2.0 | 4.0 | 0.00 | 0.00 | 0.00 | 81 | 1013.5 |
| 20260906063017 | 73 | 328 | 1.0 | 5.0 | 0.00 | 0.00 | 0.00 | 81 | 1013.6 |
| 20260906062050 | 74 | 178 | 1.0 | 4.0 | 0.00 | 0.00 | 0.00 | 80 | 1013.7 |
| 20260906061025 | 73 | 0.0 | 0.0 | 0.00 | 0.00 | 0.00 | 81 | 1013.9 | |
| 20260906060018 | 73 | 0.0 | 1.0 | 0.00 | 0.00 | 0.00 | 81 | 1013.9 | |
| 20260906055032 | 73 | 0.0 | 0.0 | 0.00 | 0.00 | 0.00 | 82 | 1014.2 | |
| 20260906054025 | 73 | 184 | 0.0 | 1.0 | 0.00 | 0.00 | 0.00 | 83 | 1014.2 |
| 20260906053019 | 73 | 0.0 | 1.0 | 0.00 | 0.00 | 0.00 | 85 | 1014.3 | |
| 20260906052054 | 73 | 0.0 | 1.0 | 0.00 | 0.00 | 0.00 | 85 | 1014.5 | |
| 20260906051028 | 73 | 0.0 | 0.0 | 0.00 | 0.00 | 0.00 | 86 | 1014.3 | |
| 20260906050022 | 73 | 318 | 0.0 | 1.0 | 0.00 | 0.00 | 0.00 | 86 | 1014.5 |
| 20260906045016 | 73 | 0.0 | 0.0 | 0.00 | 0.00 | 0.00 | 85 | 1014.6 | |
| 20260906044029 | 73 | 0.0 | 0.0 | 0.00 | 0.00 | 0.00 | 85 | 1014.7 | |
| 20260906043024 | 73 | 0.0 | 0.0 | 0.00 | 0.00 | 0.00 | 85 | 1014.8 | |
| 20260906042018 | 73 | 0.0 | 0.0 | 0.00 | 0.00 | 0.00 | 85 | 1014.9 | |
| 20260906041030 | 73 | 0.0 | 1.0 | 0.00 | 0.00 | 0.00 | 85 | 1015.0 | |
| 20260906040024 | 73 | 277 | 0.0 | 1.0 | 0.00 | 0.00 | 0.00 | 84 | 1014.9 |
| 20260906035019 | 73 | 317 | 0.0 | 1.0 | 0.00 | 0.00 | 0.00 | 85 | 1014.8 |
| 20260906034033 | 73 | 165 | 1.0 | 2.0 | 0.00 | 0.00 | 0.00 | 85 | 1014.7 |
| 20260906033027 | 74 | 0.0 | 0.0 | 0.00 | 0.00 | 0.00 | 85 | 1014.9 | |
| 20260906032042 | 74 | 190 | 0.0 | 1.0 | 0.00 | 0.00 | 0.00 | 85 | 1014.7 |
| 20260906031017 | 74 | 0.0 | 0.0 | 0.00 | 0.00 | 0.00 | 84 | 1014.8 | |
| 20260906030031 | 74 | 0.0 | 1.0 | 0.00 | 0.00 | 0.00 | 83 | 1014.8 | |
| 20260906025044 | 75 | 1 | 1.0 | 2.0 | 0.00 | 0.00 | 0.00 | 84 | 1014.9 |
| 20260906024039 | 75 | 6 | 1.0 | 3.0 | 0.00 | 0.00 | 0.00 | 85 | 1014.9 |
| 20260906023034 | 75 | 359 | 0.0 | 2.0 | 0.00 | 0.00 | 0.00 | 87 | 1014.9 |
| 20260906022029 | 75 | 172 | 2.0 | 4.0 | 0.00 | 0.00 | 0.00 | 88 | 1014.9 |
| 20260906021023 | 76 | 172 | 1.0 | 2.0 | 0.00 | 0.00 | 0.00 | 86 | 1014.9 |
| 20260906020017 | 75 | 0.0 | 0.0 | 0.00 | 0.00 | 0.00 | 87 | 1014.9 | |
| 20260906015030 | 75 | 0.0 | 1.0 | 0.00 | 0.00 | 0.00 | 87 | 1014.6 | |
| 20260906014046 | 75 | 314 | 0.0 | 1.0 | 0.00 | 0.00 | 0.00 | 87 | 1014.4 |
| 20260906013021 | 75 | 0.0 | 1.0 | 0.00 | 0.00 | 0.00 | 86 | 1014.2 | |
| 20260906012035 | 76 | 167 | 0.0 | 1.0 | 0.00 | 0.00 | 0.00 | 84 | 1013.9 |
| 20260906011030 | 76 | 0.0 | 0.0 | 0.00 | 0.00 | 0.00 | 84 | 1013.5 | |
| 20260906010024 | 76 | 343 | 1.0 | 2.0 | 0.00 | 0.00 | 0.00 | 83 | 1013.2 |
| 20260906005016 | 77 | 169 | 1.0 | 2.0 | 0.00 | 0.00 | 0.00 | 82 | 1013.1 |
| 20260906004031 | 76 | 0.0 | 0.0 | 0.00 | 0.00 | 0.00 | 84 | 1013.2 | |
| 20260906003025 | 77 | 0.0 | 0.0 | 0.00 | 0.00 | 0.00 | 83 | 1013.1 | |
| 20260906002019 | 77 | 0.0 | 1.0 | 0.00 | 0.00 | 0.00 | 82 | 1013.0 | |
| 20260906001052 | 77 | 0.0 | 0.0 | 0.00 | 0.00 | 0.00 | 82 | 1012.9 | |
| 20260906000026 | 78 | 0.0 | 0.0 | 0.00 | 0.00 | 0.00 | 80 | 1013.1 | |
| 20260905235018 | 79 | 342 | 0.0 | 2.0 | 0.00 | 0.00 | 0.00 | 79 | 1013.1 |
| 20260905234032 | 79 | 0.0 | 0.0 | 0.00 | 0.00 | 0.00 | 78 | 1013.1 | |
| 20260905233025 | 79 | 331 | 0.0 | 2.0 | 0.00 | 0.00 | 0.00 | 79 | 1013.2 |
| 20260905232038 | 79 | 0.0 | 1.0 | 0.00 | 0.00 | 0.00 | 78 | 1013.4 | |
| 20260905231052 | 78 | 328 | 1.0 | 3.0 | 0.00 | 0.00 | 0.00 | 80 | 1013.5 |
| 20260905230026 | 78 | 344 | 1.0 | 3.0 | 0.00 | 0.00 | 0.00 | 80 | 1013.4 |
| 20260905225020 | 78 | 181 | 0.0 | 2.0 | 0.00 | 0.00 | 0.00 | 80 | 1013.5 |
| 20260905224016 | 79 | 180 | 1.0 | 2.0 | 0.00 | 0.00 | 0.00 | 78 | 1013.3 |
| 20260905223030 | 78 | 189 | 1.0 | 2.0 | 0.00 | 0.00 | 0.00 | 79 | 1013.3 |
| 20260905222024 | 77 | 0.0 | 0.0 | 0.00 | 0.00 | 0.00 | 79 | 1013.5 | |
| 20260905221018 | 77 | 0.0 | 1.0 | 0.00 | 0.00 | 0.00 | 78 | 1013.3 | |
| 20260905220033 | 77 | 137 | 0.0 | 1.0 | 0.00 | 0.00 | 0.00 | 77 | 1013.1 |
| 20260905215026 | 78 | 285 | 0.0 | 2.0 | 0.00 | 0.00 | 0.00 | 77 | 1013.3 |
| 20260905214021 | 79 | 356 | 0.0 | 2.0 | 0.00 | 0.00 | 0.00 | 76 | 1013.3 |
| 20260905213015 | 81 | 71 | 1.0 | 2.0 | 0.00 | 0.00 | 0.00 | 70 | 1013.1 |
| 20260905212031 | 83 | 10 | 2.0 | 4.0 | 0.00 | 0.00 | 0.00 | 65 | 1013.6 |
| 20260905211024 | 88 | 340 | 2.0 | 5.0 | 0.00 | 0.00 | 0.00 | 58 | 1013.8 |
| 20260905210039 | 91 | 238 | 0.0 | 1.0 | 0.00 | 0.00 | 0.00 | 52 | 1013.3 |
| 20260905205034 | 92 | 251 | 0.0 | 3.0 | 0.00 | 0.00 | 0.00 | 49 | 1013.4 |
| 20260905204028 | 91 | 248 | 1.0 | 4.0 | 0.00 | 0.00 | 0.00 | 47 | 1013.1 |
| 20260905203023 | 91 | 312 | 1.0 | 3.0 | 0.00 | 0.00 | 0.00 | 48 | 1013.1 |
| 20260905202019 | 91 | 328 | 0.0 | 2.0 | 0.00 | 0.00 | 0.00 | 48 | 1013.4 |
| 20260905201033 | 90 | 245 | 1.0 | 4.0 | 0.00 | 0.00 | 0.00 | 48 | 1013.3 |
| 20260905200028 | 91 | 231 | 1.0 | 3.0 | 0.00 | 0.00 | 0.00 | 51 | 1013.4 |
| 20260905195022 | 91 | 236 | 0.0 | 3.0 | 0.00 | 0.00 | 0.00 | 51 | 1013.3 |
| 20260905194016 | 91 | 241 | 1.0 | 4.0 | 0.00 | 0.00 | 0.00 | 50 | 1013.3 |
| 20260905193031 | 92 | 224 | 2.0 | 5.0 | 0.00 | 0.00 | 0.00 | 52 | 1013.5 |
| 20260905192046 | 93 | 216 | 2.0 | 3.0 | 0.00 | 0.00 | 0.00 | 51 | 1013.9 |
| 20260905191021 | 93 | 231 | 1.0 | 4.0 | 0.00 | 0.00 | 0.00 | 52 | 1014.2 |
| 20260905190016 | 92 | 88 | 1.0 | 2.0 | 0.00 | 0.00 | 0.00 | 53 | 1014.0 |
| 20260905185031 | 91 | 241 | 1.0 | 4.0 | 0.00 | 0.00 | 0.00 | 53 | 1014.0 |
| 20260905184026 | 90 | 353 | 1.0 | 2.0 | 0.00 | 0.00 | 0.00 | 54 | 1014.1 |
| 20260905183040 | 92 | 242 | 1.0 | 4.0 | 0.00 | 0.00 | 0.00 | 53 | 1014.2 |
| 20260905182053 | 91 | 248 | 1.0 | 4.0 | 0.00 | 0.00 | 0.00 | 53 | 1014.4 |
| 20260905181028 | 91 | 280 | 2.0 | 5.0 | 0.00 | 0.00 | 0.00 | 54 | 1014.7 |
| 20260905180023 | 91 | 340 | 1.0 | 3.0 | 0.00 | 0.00 | 0.00 | 55 | 1014.8 |
| 20260905175016 | 89 | 232 | 1.0 | 4.0 | 0.00 | 0.00 | 0.00 | 54 | 1014.8 |
| 20260905174030 | 89 | 186 | 2.0 | 4.0 | 0.00 | 0.00 | 0.00 | 55 | 1014.9 |
| 20260905173026 | 90 | 341 | 1.0 | 2.0 | 0.00 | 0.00 | 0.00 | 56 | 1015.1 |
| 20260905172020 | 89 | 253 | 1.0 | 2.0 | 0.00 | 0.00 | 0.00 | 55 | 1015.0 |
| 20260905171035 | 88 | 269 | 1.0 | 2.0 | 0.00 | 0.00 | 0.00 | 60 | 1015.1 |
| 20260905170030 | 89 | 280 | 2.0 | 5.0 | 0.00 | 0.00 | 0.00 | 59 | 1015.3 |
| 20260905165024 | 87 | 272 | 2.0 | 3.0 | 0.00 | 0.00 | 0.00 | 61 | 1015.3 |
| 20260905164019 | 88 | 267 | 3.0 | 6.0 | 0.00 | 0.00 | 0.00 | 61 | 1015.5 |
| 20260905163034 | 87 | 271 | 2.0 | 3.0 | 0.00 | 0.00 | 0.00 | 61 | 1015.7 |
| 20260905162029 | 86 | 251 | 2.0 | 5.0 | 0.00 | 0.00 | 0.00 | 63 | 1015.9 |
| 20260905161044 | 86 | 275 | 2.0 | 3.0 | 0.00 | 0.00 | 0.00 | 65 | 1015.9 |
| 20260905160018 | 86 | 271 | 1.0 | 5.0 | 0.00 | 0.00 | 0.00 | 68 | 1015.9 |
| 20260905155033 | 86 | 279 | 1.0 | 3.0 | 0.00 | 0.00 | 0.00 | 69 | 1016.0 |
| 20260905154047 | 85 | 295 | 1.0 | 3.0 | 0.00 | 0.00 | 0.00 | 70 | 1016.1 |
| 20260905153042 | 84 | 333 | 1.0 | 3.0 | 0.00 | 0.00 | 0.00 | 69 | 1016.2 |
| 20260905152037 | 84 | 323 | 2.0 | 5.0 | 0.00 | 0.00 | 0.00 | 72 | 1016.2 |
| 20260905151032 | 83 | 270 | 2.0 | 5.0 | 0.00 | 0.00 | 0.00 | 72 | 1016.2 |
| 20260905150028 | 83 | 293 | 1.0 | 3.0 | 0.00 | 0.00 | 0.00 | 74 | 1016.2 |
| 20260905145022 | 82 | 273 | 2.0 | 4.0 | 0.00 | 0.00 | 0.00 | 74 | 1016.3 |
| 20260905144016 | 81 | 253 | 1.0 | 4.0 | 0.00 | 0.00 | 0.00 | 76 | 1016.4 |
| 20260905143030 | 80 | 275 | 1.0 | 3.0 | 0.00 | 0.00 | 0.00 | 76 | 1016.4 |
| 20260905142025 | 80 | 287 | 1.0 | 3.0 | 0.00 | 0.00 | 0.00 | 78 | 1016.4 |
| 20260905141016 | 80 | 291 | 1.0 | 3.0 | 0.00 | 0.00 | 0.00 | 77 | 1016.4 |
| 20260905140031 | 79 | 269 | 1.0 | 3.0 | 0.00 | 0.00 | 0.00 | 78 | 1016.6 |
| 20260905135026 | 78 | 250 | 1.0 | 4.0 | 0.00 | 0.00 | 0.00 | 78 | 1016.7 |
| 20260905134019 | 78 | 230 | 1.0 | 3.0 | 0.00 | 0.00 | 0.00 | 78 | 1016.7 |
| 20260905133054 | 78 | 252 | 2.0 | 4.0 | 0.00 | 0.00 | 0.00 | 79 | 1016.7 |
| 20260905132028 | 77 | 303 | 1.0 | 3.0 | 0.00 | 0.00 | 0.00 | 79 | 1016.7 |
| 20260905131041 | 77 | 303 | 1.0 | 2.0 | 0.00 | 0.00 | 0.00 | 81 | 1016.8 |
| 20260905130035 | 76 | 322 | 1.0 | 2.0 | 0.00 | 0.00 | 0.00 | 81 | 1016.7 |
| 20260905125029 | 76 | 150 | 0.0 | 2.0 | 0.00 | 0.00 | 0.00 | 81 | 1016.7 |
| 20260905124025 | 76 | 346 | 1.0 | 2.0 | 0.00 | 0.00 | 0.00 | 82 | 1016.7 |
| 20260905123020 | 76 | 303 | 0.0 | 3.0 | 0.00 | 0.00 | 0.00 | 82 | 1016.7 |
| 20260905122034 | 75 | 329 | 0.0 | 2.0 | 0.00 | 0.00 | 0.00 | 82 | 1016.7 |
| 20260905121028 | 75 | 5 | 0.0 | 2.0 | 0.00 | 0.00 | 0.00 | 82 | 1016.5 |
| 20260905120021 | 75 | 299 | 0.0 | 2.0 | 0.00 | 0.00 | 0.00 | 82 | 1016.3 |
| 20260905115036 | 75 | 226 | 0.0 | 2.0 | 0.00 | 0.00 | 0.00 | 82 | 1016.3 |
| 20260905114031 | 75 | 292 | 0.0 | 2.0 | 0.00 | 0.00 | 0.00 | 83 | 1016.1 |
| 20260905113025 | 75 | 324 | 0.0 | 2.0 | 0.00 | 0.00 | 0.00 | 83 | 1016.1 |
| 20260905112040 | 74 | 297 | 0.0 | 2.0 | 0.00 | 0.00 | 0.00 | 83 | 1016.0 |